Weather observations for the past three days for
Fort Collins/Loveland - Northern Colorado Regional Airport
Metric (Imperial)
Date Time (mdt) Wind (kph) Vis. (km) Weather Sky Cond. Temperature (ºC) Relative Humidity Wind Chill (°C) Heat Index (°C) Pressure Precipitation (cm)
Air Dwpt 6 hour altimeter (cm) sea level (mb) 1 hr 3 hr 6 hr
Max. Min.
24 19:56 SE 17 16.09 Fair CLR 18.3 0.6 31% 75.77 1006.4
24 18:56 SE 28 16.09 Fair CLR 20 1.1 28% 75.77 1006.4
24 17:56 SE 19 16.09 Fair CLR 22.2 -3.3 23.3 16.7 18% 75.77 1006.7
24 16:56 SE 17 16.09 Fair CLR 22.2 -3.3 18% 75.79 1006.5
24 15:56 S 15 16.09 Fair CLR 22.2 -3.9 17% 75.82 1006.6
24 14:56 Vrbl 11 G 26 16.09 Fair CLR 21.7 -3.3 19% 75.87 1007.5
24 13:56 Vrbl 9 16.09 Fair CLR 20.6 -2.8 21% 75.92 1008.3
24 12:56 E 15 G 31 16.09 Fair CLR 18.9 -3.3 22% 76 1009.5
24 11:56 SE 15 G 28 16.09 Fair CLR 17.8 -3.3 17.8 2.8 24% 76.05 1010.0
24 10:56 SE 13 16.09 Fair CLR 15 -3.9 27% 76.07 1010.7
24 09:56 S 9 16.09 Fair CLR 12.8 -4.4 30% 76.1 1011.1
24 08:56 S 7 16.09 Fair CLR 10.6 -4.4 35% 76.12 1011.8
24 07:56 S 11 16.09 Fair CLR 9.4 -3.9 39% 8 76.1 1011.4
24 06:56 S 7 16.09 Fair CLR 6.7 -2.8 51% 6 76.05 1010.5
24 05:56 S 9 16.09 Fair CLR 3.3 -4.4 10 2.8 57% 1 76 1010.5
24 04:56 SW 9 16.09 Fair CLR 5.6 -5.6 45% 4 75.97 1009.8
24 03:56 NE 19 16.09 Fair CLR 7.2 -7.2 35% 4 75.92 1008.5
24 02:56 NE 17 16.09 Fair CLR 7.2 -6.7 37% 5 75.9 1007.3
24 01:56 NE 15 16.09 Fair CLR 7.8 -6.1 37% 6 75.87 1006.6
24 00:56 E 17 16.09 Fair CLR 7.2 -5 42% 5 75.84 1006.5
23 23:56 N 15 16.09 Fair CLR 9.4 -7.2 21.1 9.4 31% 7 75.84 1006.4
23 22:56 S 13 G 31 16.09 Fair CLR 11.7 -7.2 26% 75.84 1006.6
23 21:56 NW 46 G 59 16.09 Fair and Windy CLR 13.3 -6.7 24% 75.79 1005.9
23 20:56 W 13 G 30 16.09 Fair CLR 13.3 -2.8 33% 75.79 1006.3
23 19:56 W 41 G 57 16.09 Fair and Breezy CLR 15 0.6 38% 75.57 1003.9
23 18:56 N 26 G 35 16.09 Fair CLR 20 1.7 30% 75.36 1000.8
23 17:56 NE 19 16.09 Fair CLR 18.3 1.7 27.2 18.3 33% 75.34 1001.0
23 16:56 NE 33 G 41 16.09 Partly Cloudy and Breezy SCT120 18.3 0.6 31% 75.34 1001.1
23 15:56 NE 35 G 50 16.09 Fair and Breezy CLR 20 0.6 27% 75.23 999.4
23 14:56 Vrbl 7 16.09 Fair CLR 24.4 -2.2 17% 24 75.18 997.8
23 13:56 SE 11 G 26 16.09 Fair CLR 25.6 -2.8 15% 25 75.21 997.7
23 12:56 S 20 G 30 16.09 Fair CLR 25.6 -1.1 17% 25 75.23 997.6
23 11:56 SE 17 16.09 Fair CLR 25 -2.8 25 4.4 16% 25 75.29 998.2
23 10:56 S 9 16.09 Fair CLR 21.7 0 24% 75.39 999.4
23 09:56 S 9 16.09 Fair CLR 18.9 2.8 34% 75.41 1000.5
23 08:56 Calm 16.09 Fair CLR 15 1.7 41% 75.46 1001.2
23 07:56 NW 7 16.09 Fair CLR 10 1.7 57% 9 75.49 1002.4
23 06:56 E 7 16.09 Fair CLR 7.2 1.7 68% 6 75.46 1002.0
23 05:56 NE 7 16.09 Fair CLR 4.4 -0.6 12.8 2.2 70% 3 75.46 1002.3
23 04:56 NE 7 16.09 Fair CLR 5 0 70% 4 75.49 1002.8
23 03:56 N 7 16.09 Fair CLR 5 -0.6 67% 4 75.54 1003.0
23 02:56 NE 7 16.09 Fair CLR 6.1 -0.6 63% 5 75.54 1003.4
23 01:56 N 9 16.09 Fair CLR 7.8 0 58% 6 75.62 1003.9
23 00:56 E 11 16.09 Fair CLR 10.6 -1.1 45% 75.69 1004.7
22 23:56 NE 11 16.09 Fair CLR 12.2 -1.7 22.2 11.7 38% 75.72 1005.1
22 22:56 E 6 16.09 Mostly Cloudy BKN120 14.4 -1.7 33% 75.77 1005.8
22 21:56 Vrbl 7 16.09 A Few Clouds FEW120 13.9 -2.8 32% 75.74 1006.0
22 20:56 Calm 16.09 Fair CLR 17.8 -4.4 22% 75.69 1005.2
22 19:56 Calm 16.09 Fair CLR 18.9 -5 19% 75.67 1005.0
22 18:56 W 20 16.09 Fair CLR 21.1 -5.6 16% 75.67 1005.1
22 17:56 SW 17 16.09 Fair CLR 21.7 -5.6 22.8 18.3 16% 75.67 1005.1
22 16:56 SW 17 16.09 Fair CLR 20.6 -6.1 16% 75.72 1006.2
22 15:56 SW 13 16.09 Fair CLR 22.2 -7.2 13% 75.72 1006.0
22 14:56 S 15 16.09 Fair CLR 20 -5.6 17% 75.79 1007.0
22 13:56 S 20 G 30 16.09 Fair CLR 20.6 -5.6 17% 75.87 1008.0
22 12:56 S 22 G 31 16.09 Fair CLR 19.4 -5.6 18% 75.92 1009.0
22 11:56 S 24 G 37 16.09 Fair CLR 18.3 -5 18.3 3.9 20% 76.02 1010.2
22 10:56 S 17 G 30 16.09 Fair CLR 16.1 -4.4 24% 76.12 1011.8
22 09:56 S 17 16.09 Fair CLR 13.9 -0.6 37% 76.2 1012.9
22 08:56 SE 7 16.09 Fair CLR 10.6 -0.6 46% 76.23 1014.0
22 07:56 Calm 16.09 Fair CLR 8.9 -1.1 50% 76.25 1014.3
22 06:56 S 7 16.09 Fair CLR 5.6 1.7 76% 4 76.3 1015.3
22 05:56 Calm 16.09 Fair CLR 4.4 -2.8 6.7 1.7 60% 76.3 1015.2
22 04:56 S 6 16.09 Fair CLR 2.8 -0.6 79% 76.33 1016.2
22 03:56 S 9 16.09 Fair CLR 3.3 1.7 89% 1 76.33 1016.0
22 02:56 Vrbl 7 16.09 Fair CLR 5.6 2.2 79% 4 76.33 1015.6
22 01:56 E 11 16.09 Fair CLR 5 1.7 79% 3 76.33 1015.6
22 00:56 SE 15 16.09 Fair CLR 5 2.8 86% 2 76.3 1014.8
21 23:56 SE 11 16.09 Fair CLR 6.7 0 13.9 5.6 63% 5 76.33 1014.7
21 22:56 N 11 16.09 Fair CLR 8.9 -4.4 39% 7 76.35 1014.8
21 21:56 E 9 16.09 Fair CLR 9.4 -2.8 43% 8 76.33 1014.6
21 20:56 NW 9 16.09 Fair CLR 8.9 -2.2 46% 8 76.25 1014.2
Date Time (mdt) Wind (kph) Vis. (km) Weather Sky Cond. Air Dwpt Max. Min. Relative Humidity Wind Chill (°C) Heat Index (°C) altimeter (cm) sea level (mb) 1 hr 3 hr 6 hr
6 hour
Temperature (ºC) Pressure Precipitation (cm)